RH
10 10 10 10 10 10 11 11 11 11 11 10 10 9 9 8 8 7 7 7 6 6 6 5 5 5 5 5 5 5 5 5 6 7 9 9 8 7 6 5 5 6 6 6 8 12 14 16 22 27 33 36 35 32 32 36 38 42 51 58 63 68 72 77 86 98 98 78 78 97 91 87 94 88 66 59 60 32 15 19 14 15 16 18 19 18 21 24
12 12 12 12 12 12 12 12 12 12 11 11 10 10 9 8 8 7 7 7 7 6 6 6 5 5 5 5 5 5 5 5 5 5 7 8 8 8 7 6 5 5 5 6 7 9 10 13 20 25 31 34 34 32 33 37 37 42 52 59 63 68 81 90 92 99 96 79 81 97 90 82 89 89 74 63 57 35 23 23 15 13 16 19 19 16 19 23
13 14 14 14 14 14 14 13 13 12 12 11 10 10 9 8 8 8 7 7 7 6 6 6 6 5 5 5 5 5 5 5 5 5 6 7 8 8 8 8 6 5 4 5 6 7 8 11 18 25 30 32 32 31 31 36 38 44 52 59 63 62 81 97 97 99 92 85 86 91 89 75 75 85 80 62 55 48 37 29 18 11 17 21 18 15 17 22
12 12 13 13 13 13 13 12 12 12 12 11 10 10 9 8 8 8 8 7 7 6 6 6 6 5 5 5 5 5 5 5 5 4 5 6 7 8 8 9 8 7 5 4 5 5 7 10 15 22 28 30 30 29 31 36 38 45 50 56 61 56 78 98 97 97 88 89 92 87 88 75 72 87 80 57 54 56 42 36 25 10 17 22 17 15 15 23
11 11 11 12 12 11 12 11 12 11 11 10 10 9 9 9 8 8 7 7 7 6 6 6 5 5 5 5 5 5 5 4 5 4 5 5 6 7 8 10 9 8 6 5 4 4 6 8 12 18 24 27 28 30 32 36 37 41 42 47 58 59 81 99 96 96 86 87 90 86 90 82 81 91 82 57 51 50 37 36 26 9 16 18 16 17 16 24
13 14 14 14 13 12 12 12 11 11 10 10 9 10 9 9 8 8 7 6 6 5 5 5 5 5 5 5 4 4 4 4 5 4 5 5 5 6 8 10 10 10 8 6 5 4 5 7 11 14 19 24 28 30 32 37 37 40 41 46 60 64 77 94 95 93 85 84 85 87 94 88 85 88 76 57 52 47 35 32 25 13 14 13 14 18 19 27
13 14 14 14 13 13 12 11 11 10 10 10 10 10 9 9 8 7 7 6 6 5 5 5 4 4 4 4 4 4 4 4 4 4 5 4 5 6 7 9 10 11 10 8 6 5 5 7 9 10 14 21 25 29 32 36 37 38 41 47 61 65 74 89 94 93 87 83 83 86 90 82 84 87 68 53 54 49 37 33 31 23 15 11 13 17 23 32
12 13 13 13 13 12 12 11 11 11 10 10 9 9 8 8 7 6 6 5 5 5 5 4 4 4 3 4 3 3 4 4 4 4 4 4 5 5 6 8 10 12 11 10 8 6 5 5 7 8 10 14 18 26 31 34 36 36 35 42 55 64 76 87 94 98 90 85 86 87 85 77 85 89 65 50 53 52 43 32 31 30 16 9 13 17 28 35
11 12 13 13 13 12 12 12 11 11 10 9 9 8 8 7 6 6 5 5 5 4 4 4 3 3 3 3 3 3 3 3 4 3 4 4 4 4 5 7 9 11 12 12 10 7 5 4 5 6 7 10 14 22 29 32 35 36 35 39 48 60 72 80 93 99 88 83 82 82 85 81 85 82 60 48 47 52 54 37 27 26 14 9 15 21 31 33
10 11 13 13 13 13 12 12 12 11 10 9 8 8 7 7 6 5 5 5 4 4 3 3 3 3 2 3 2 3 3 3 3 3 3 3 4 4 4 6 8 11 12 13 13 9 6 5 5 5 6 8 12 18 26 30 34 38 39 38 43 57 66 70 89 99 90 83 76 75 81 85 88 76 58 49 44 52 62 49 27 18 12 11 18 25 32 31
9 10 12 13 14 13 13 13 12 11 10 9 8 7 7 6 6 5 4 4 3 3 3 3 3 2 2 2 2 2 2 2 3 3 3 3 3 4 4 5 7 10 13 15 15 12 8 6 5 5 6 6 9 15 24 29 34 38 40 44 50 64 72 74 86 97 92 84 83 86 81 87 95 79 59 49 49 60 68 59 31 12 10 12 20 29 30 29
9 10 12 14 14 14 13 13 12 11 9 8 7 7 6 6 5 4 4 3 3 3 3 3 2 2 2 2 2 2 2 2 2 2 2 3 3 3 4 4 6 9 14 16 16 14 10 7 6 5 5 5 7 14 23 29 33 35 37 46 55 64 75 80 86 95 95 87 88 91 83 89 96 82 62 46 49 67 72 64 39 13 10 12 22 32 30 30
9 10 13 15 15 14 14 13 12 10 9 8 7 7 6 5 5 4 4 3 3 3 2 2 2 2 2 2 2 2 2 2 2 2 2 2 3 3 4 4 5 8 14 17 16 15 12 8 7 5 5 5 8 13 21 29 33 35 39 44 51 60 72 80 84 92 99 93 84 85 87 91 88 75 58 42 50 69 73 65 45 22 12 13 23 33 33 31
10 12 14 15 15 14 14 13 11 10 8 8 7 6 5 5 4 3 3 3 3 3 2 2 2 2 2 2 2 2 2 2 2 2 2 2 2 3 4 4 5 7 12 17 17 17 14 10 8 6 5 5 8 13 21 29 33 40 46 46 50 61 73 82 89 95 98 95 87 86 90 86 80 66 47 46 56 61 65 61 48 32 16 15 24 31 35 32
11 13 15 16 16 15 14 13 11 9 8 7 6 6 5 4 4 3 3 3 3 3 2 2 2 2 2 2 3 2 2 3 3 3 2 2 3 3 4 5 6 7 10 15 18 19 16 13 9 7 6 4 7 14 22 28 34 44 49 49 54 64 76 83 88 96 97 95 92 91 87 79 78 63 43 53 59 49 55 55 46 37 21 17 26 30 34 33
13 14 16 17 16 15 14 12 9 8 8 7 6 5 5 4 4 3 3 3 3 3 2 2 2 2 3 3 3 3 3 3 3 4 4 4 4 3 4 6 6 7 10 13 17 19 19 15 11 8 6 5 8 15 24 30 35 46 48 48 60 70 79 85 84 90 95 95 94 94 91 80 72 61 46 54 58 45 46 47 41 38 26 19 25 30 33 33
14 15 17 17 17 16 13 11 9 8 7 6 6 5 4 4 4 3 3 3 3 2 2 2 3 3 3 3 4 4 4 4 4 5 5 5 6 5 5 7 8 8 10 13 16 19 21 17 13 10 6 6 8 14 27 35 37 46 49 49 66 78 80 85 87 88 92 94 94 95 97 86 66 59 57 59 63 50 41 40 35 35 31 22 24 30 34 33
16 17 18 18 17 15 12 10 9 8 7 6 5 5 4 4 4 3 3 3 3 3 3 3 3 4 4 4 4 5 5 6 6 6 6 6 7 7 6 8 9 9 9 12 16 20 23 20 15 11 7 6 7 15 31 39 39 44 52 59 75 86 82 82 86 90 92 91 95 96 98 94 69 59 71 79 76 57 40 35 29 31 33 26 24 29 36 35
18 18 19 19 17 14 11 9 8 7 6 5 5 4 4 4 4 4 3 3 3 3 3 3 4 4 5 5 5 5 6 7 7 7 8 8 8 8 8 9 11 10 9 13 18 22 24 22 17 13 9 6 8 23 37 42 43 44 52 69 85 89 84 83 85 90 91 86 93 99 98 100 78 59 74 91 85 61 42 32 22 27 31 28 26 30 39 37
20 20 21 20 17 13 10 9 8 7 6 5 5 4 4 4 4 3 3 3 3 3 4 4 5 6 6 6 6 6 6 6 7 8 8 8 8 9 10 11 12 12 11 14 19 23 25 24 19 14 10 6 12 31 42 43 48 50 54 74 92 92 84 85 87 87 88 84 90 98 98 102 86 66 75 91 86 62 45 34 19 20 27 28 27 30 41 38
22 23 22 20 16 12 10 9 7 6 6 5 5 4 4 4 4 4 3 3 3 4 5 7 10 12 10 8 7 7 6 6 6 7 8 9 8 10 12 14 14 14 14 16 21 24 26 25 21 16 9 6 16 35 43 43 49 55 59 73 90 94 85 85 86 84 85 85 89 96 99 101 93 84 86 92 86 63 48 40 22 16 22 25 26 28 38 37
25 24 22 19 15 11 9 8 6 6 6 5 5 5 4 4 4 4 3 5 6 8 11 14 18 20 17 11 7 8 7 7 7 6 8 9 9 12 15 17 17 17 18 17 20 23 26 26 21 15 8 6 18 34 42 43 48 52 55 64 79 87 82 81 84 83 86 87 88 94 99 100 97 96 91 88 84 64 50 44 27 18 21 23 25 28 35 37
27 25 22 18 14 10 9 7 6 6 5 5 5 4 4 5 4 4 6 11 17 20 21 21 21 23 24 16 7 7 7 7 7 7 8 9 11 14 17 20 20 19 19 18 20 24 27 25 20 14 7 6 15 29 40 45 47 47 48 54 68 77 77 78 79 77 82 88 90 95 100 100 98 99 92 84 81 65 51 47 34 21 20 23 25 29 35 36
27 24 20 16 12 10 8 7 6 6 5 6 5 5 5 5 4 5 13 25 33 33 29 25 23 23 27 21 9 5 6 6 8 9 10 12 15 18 20 22 21 20 20 19 22 26 27 23 17 12 8 7 11 24 40 49 48 45 45 49 61 70 73 77 76 70 76 87 92 96 100 100 99 100 96 91 86 71 53 48 42 29 22 22 23 28 33 33
26 23 18 14 11 9 7 7 6 5 6 6 6 6 5 5 4 8 21 37 42 37 32 28 25 24 26 25 15 7 5 7 10 14 17 18 20 21 22 23 22 21 21 21 24 27 26 21 17 12 9 7 9 18 34 46 47 45 45 49 58 67 70 73 73 70 74 83 89 96 99 100 100 99 100 98 92 79 59 51 51 43 31 23 19 24 28 28
25 20 16 13 10 8 7 6 6 6 6 6 7 7 6 6 6 12 28 40 40 36 33 28 27 25 21 22 20 11 7 9 13 19 21 22 23 23 22 23 22 21 22 22 25 28 26 21 17 13 9 8 9 13 26 40 47 48 49 49 54 64 68 70 71 68 69 75 81 92 98 100 101 99 100 99 93 86 68 55 57 54 42 30 21 24 27 25
23 18 15 12 9 8 7 6 6 6 7 7 8 7 6 5 6 16 32 39 37 37 33 26 28 26 17 16 20 16 12 12 13 19 23 23 24 24 23 22 21 22 21 21 24 28 27 21 17 12 9 9 8 11 23 37 46 49 51 51 52 58 62 65 67 63 61 65 72 84 93 97 100 100 99 96 92 89 77 59 56 57 51 42 31 27 28 27
21 17 14 11 9 8 7 6 6 6 8 9 9 8 6 6 9 19 33 38 38 38 33 27 28 29 22 13 13 18 24 26 23 20 21 24 24 23 23 22 22 22 20 21 24 27 27 23 17 13 11 9 7 12 25 35 43 46 47 48 49 55 57 56 59 58 55 59 66 74 82 88 95 100 100 97 92 90 85 70 59 57 56 53 44 34 32 33
20 16 13 10 9 8 6 6 7 8 11 10 9 8 6 6 12 23 36 40 38 37 34 30 30 37 42 36 19 14 25 36 40 31 20 22 24 23 23 23 22 22 21 23 26 28 27 23 17 13 11 9 10 17 25 35 50 53 47 43 44 50 52 50 51 52 52 57 64 68 71 78 90 99 100 97 92 90 89 82 71 62 59 60 54 43 38 42
19 16 12 10 8 7 6 6 9 12 13 10 9 8 7 10 22 35 44 45 40 36 32 31 38 46 61 72 52 27 29 37 43 44 33 24 23 23 24 24 24 23 22 24 27 29 28 23 19 14 11 14 25 35 38 49 67 67 53 45 45 48 52 60 67 67 66 66 65 65 68 73 83 95 100 96 91 92 93 88 82 68 60 63 60 50 45 49
20 16 12 10 8 7 6 8 13 16 14 10 9 9 10 17 35 51 53 48 39 35 30 28 43 54 62 81 76 54 53 50 39 42 43 33 25 23 24 24 26 24 23 27 30 32 31 26 17 12 22 42 56 56 48 55 74 77 64 54 53 55 58 69 82 84 84 81 71 67 73 76 78 88 99 99 95 97 97 94 90 75 62 62 62 56 50 51
20 16 12 10 8 7 6 11 18 20 14 10 9 10 15 27 46 57 54 48 38 35 34 27 41 58 59 74 82 70 70 67 48 39 41 37 27 22 24 26 28 26 26 34 38 37 33 29 24 23 38 61 72 63 42 39 57 68 65 58 58 63 64 68 74 78 83 82 74 73 78 81 82 85 91 98 100 98 98 98 95 84 73 67 63 58 53 50
21 17 13 10 9 6 8 15 22 23 15 10 10 12 20 35 52 56 51 48 37 31 32 30 41 56 57 66 76 74 78 80 65 43 31 29 23 20 27 31 30 31 35 43 49 44 36 39 49 49 45 47 53 48 29 22 33 43 48 54 61 66 69 69 69 72 79 78 74 75 77 77 83 89 90 95 100 100 99 100 98 91 81 71 65 60 54 48
24 20 13 11 9 6 9 17 24 25 17 11 11 12 19 34 48 52 46 40 30 23 29 36 46 54 58 62 65 71 83 85 77 53 25 18 20 25 36 39 38 44 46 50 56 53 48 53 62 59 49 40 37 36 33 38 47 45 45 59 73 76 74 72 71 74 79 80 78 77 74 73 81 91 96 96 98 100 100 99 100 98 85 68 60 58 54 47
26 23 16 11 9 6 9 18 26 26 17 12 13 12 20 36 48 51 44 34 25 25 37 44 46 53 63 63 59 65 77 85 86 63 27 15 22 35 50 53 50 52 52 54 60 60 61 68 69 61 53 48 45 47 57 72 78 69 61 69 81 84 79 74 75 78 82 83 84 81 76 77 81 88 96 97 96 99 101 100 99 99 90 70 55 52 52 48
30 26 20 13 9 7 8 17 27 26 16 14 14 13 23 40 53 55 47 37 27 30 49 56 49 58 68 65 63 69 76 88 86 55 22 17 27 47 69 70 61 62 62 62 65 65 68 76 77 66 55 53 59 62 64 74 81 80 77 75 76 80 79 75 73 77 81 85 89 87 81 80 81 85 94 98 98 99 100 100 98 98 96 82 63 54 52 49
36 31 24 15 10 7 8 16 26 24 16 15 14 16 26 40 52 58 51 42 31 29 46 58 57 69 77 68 67 70 72 86 88 59 28 23 39 62 77 71 64 68 70 66 66 69 73 79 81 73 64 61 63 60 60 70 79 82 84 81 76 76 74 71 70 72 79 89 94 91 87 87 85 86 93 97 99 100 97 97 99 98 98 89 72 64 58 51
38 37 30 18 11 7 8 15 23 23 19 17 16 18 28 37 45 54 53 46 38 30 36 48 59 75 79 67 64 68 66 75 86 75 45 32 47 65 67 62 61 64 66 64 65 69 74 83 86 78 74 73 67 59 57 60 67 79 90 89 82 80 77 73 73 71 76 89 96 92 87 87 86 86 90 92 94 97 94 94 98 98 97 91 78 71 65 53
38 41 36 23 12 8 9 14 20 23 20 18 18 20 29 37 39 48 52 43 37 33 33 45 64 78 79 67 65 73 75 75 82 83 60 39 49 61 59 61 65 63 60 60 65 70 74 84 89 81 79 82 76 68 66 58 52 68 92 94 85 84 83 78 74 71 72 84 92 88 82 81 82 83 85 86 86 87 87 89 95 98 98 96 87 81 74 56
38 43 42 28 13 8 10 15 20 24 22 19 20 22 33 42 42 48 48 35 31 34 34 48 69 81 81 74 69 73 80 78 79 85 73 51 54 64 60 60 65 65 61 61 68 75 79 85 89 86 83 80 69 62 73 77 65 69 89 94 83 81 80 73 69 68 68 75 82 83 80 78 79 80 80 81 78 77 79 81 87 95 100 101 97 94 86 65
41 45 46 35 18 9 11 16 22 25 24 21 21 27 41 49 47 51 46 29 26 31 34 50 71 80 83 81 74 73 79 74 69 80 82 67 67 75 69 65 69 66 61 65 72 76 82 86 86 87 86 81 72 68 72 79 81 84 91 91 85 79 73 70 70 69 64 68 74 76 76 74 74 76 77 77 73 69 69 71 74 82 92 100 100 99 94 74
45 48 50 42 26 13 10 16 23 28 27 24 24 32 46 52 48 50 44 29 25 26 26 38 57 71 77 78 78 81 83 71 62 76 86 81 79 83 82 80 78 71 62 64 73 75 79 87 87 87 87 83 83 82 73 67 78 91 90 87 84 73 60 62 73 77 71 71 72 70 70 69 68 73 76 74 70 64 62 64 65 69 80 95 102 100 94 76
47 53 53 47 34 17 11 17 23 28 29 27 28 34 47 55 50 45 40 33 32 31 23 20 29 50 66 73 79 88 87 74 70 77 81 82 84 84 88 85 80 80 72 66 76 79 77 86 89 82 82 83 84 85 79 71 77 84 81 79 80 71 65 70 80 84 80 76 72 64 64 69 68 71 75 73 70 63 60 66 71 69 75 91 100 97 88 72
46 56 55 51 41 23 13 17 21 26 30 30 29 33 46 57 51 40 37 38 37 34 28 18 13 26 52 72 81 87 88 83 81 78 72 77 84 83 86 85 79 85 82 74 82 82 76 85 88 77 75 82 88 88 84 83 85 85 78 75 76 76 82 87 83 81 78 74 72 65 63 71 73 71 74 74 70 64 64 78 88 85 85 94 98 93 84 70
47 57 57 54 47 29 15 15 19 24 31 33 32 33 42 52 47 37 37 40 36 29 26 21 10 12 37 66 80 85 89 88 87 86 78 78 83 81 84 87 86 89 88 87 92 86 81 86 84 78 81 88 94 94 87 83 89 91 83 74 71 72 81 86 75 69 69 67 69 70 68 73 75 71 72 74 70 64 65 83 98 98 96 99 97 92 88 77
48 59 60 57 50 34 18 14 17 21 27 34 39 39 40 42 42 40 41 40 35 30 26 19 8 8 26 50 68 80 88 88 88 95 95 90 88 84 83 89 96 97 91 93 97 89 85 89 87 85 89 92 93 91 84 79 82 89 85 77 71 62 62 66 58 50 53 54 60 69 70 73 74 68 69 75 74 69 68 80 95 100 101 101 98 96 95 90
51 60 62 60 54 39 21 14 17 20 24 34 42 44 41 37 38 45 46 38 33 32 30 20 9 8 18 35 52 66 79 88 88 90 95 96 93 87 84 87 97 101 93 91 96 91 86 91 91 86 84 84 81 77 76 73 71 79 82 75 73 65 53 54 52 46 43 41 48 61 67 73 74 69 72 80 78 73 72 76 85 92 96 99 99 99 99 97
55 62 64 63 57 43 24 15 16 18 23 34 41 45 46 42 39 42 41 36 33 32 31 24 14 12 18 31 42 52 71 89 88 82 87 92 91 89 90 87 89 96 96 93 96 97 92 90 87 83 78 75 71 68 70 66 61 70 79 76 76 76 66 59 56 50 42 34 37 50 61 68 72 73 79 86 82 74 73 75 79 83 86 90 91 92 93 94
60 65 67 66 59 46 26 13 14 16 21 35 44 46 45 42 40 38 34 34 36 35 34 29 20 19 28 36 37 43 64 80 75 73 82 87 85 84 87 85 80 84 92 95 96 97 97 91 83 81 80 72 66 65 67 65 59 62 76 81 79 76 67 58 51 47 41 32 31 44 54 57 64 71 75 79 79 74 71 73 78 81 82 83 84 85 87 92
65 66 68 69 63 50 28 14 13 15 18 30 40 41 36 34 39 40 36 35 37 36 37 33 22 19 26 31 28 32 50 62 59 63 76 83 83 80 77 77 76 75 80 86 89 89 93 92 84 82 85 78 69 66 64 62 57 54 61 70 74 72 63 50 41 36 30 25 28 41 49 47 52 63 66 67 69 67 65 69 73 74 75 77 81 85 89 95
68 69 71 72 66 52 31 16 14 15 16 23 33 38 37 35 35 37 38 38 37 36 35 30 21 14 14 16 15 18 31 41 48 57 66 72 77 77 72 69 70 71 72 73 77 79 83 89 86 83 86 82 71 67 67 61 55 51 50 52 57 59 52 41 33 28 25 27 35 44 48 45 46 53 58 59 59 59 58 63 68 70 71 75 82 87 90 95
67 70 72 73 68 54 35 19 14 17 18 20 28 38 45 44 36 35 41 43 40 39 37 32 23 12 9 9 9 14 22 25 32 48 61 66 70 73 71 68 68 72 74 70 69 71 72 81 87 84 85 86 75 69 73 69 59 54 52 48 46 44 39 35 33 30 30 34 42 48 49 46 45 48 53 55 56 56 54 55 62 69 73 77 85 90 91 92
Wind_Speed
8 9 9 9 10 10 10 11 11 11 11 11 12 12 12 13 13 13 13 13 14 14 14 14 14 13 13 13 13 13 13 13 14 14 14 15 16 17 17 17 16 16 15 13 13 12 12 10 9 10 11 12 13 13 13 10 9 8 7 9 11 13 14 12 11 18 23 15 16 19 15 11 12 9 6 8 4 6 13 12 9 10 9 8 7 5 6 6
8 9 10 10 10 11 11 12 13 13 13 13 14 14 14 15 15 15 15 15 15 15 15 15 15 15 15 15 15 15 15 15 15 15 15 16 17 18 18 18 18 17 17 15 15 14 13 11 9 9 10 13 14 14 13 10 10 9 7 9 11 13 12 11 13 23 25 16 17 19 15 12 13 11 7 7 6 6 11 13 10 11 11 10 8 5 5 5
8 9 10 11 11 12 13 13 14 15 15 15 16 16 16 16 16 17 17 16 16 16 16 17 17 17 17 17 17 17 17 17 17 17 17 17 18 19 19 20 19 18 18 17 16 16 14 11 10 10 11 14 15 16 13 10 11 10 7 8 11 13 12 11 15 24 21 16 17 19 17 13 12 12 10 8 6 6 9 13 11 11 12 10 9 6 5 5
10 11 12 13 13 14 14 15 16 16 17 17 17 17 18 18 18 18 18 18 18 18 18 18 18 18 19 19 19 19 19 19 19 19 18 18 19 20 20 21 21 20 20 19 18 17 15 13 12 12 13 14 16 17 13 10 11 9 8 8 10 13 11 7 18 23 18 17 17 17 17 14 13 13 10 9 8 7 9 11 9 10 12 11 10 7 5 5
12 13 14 15 15 16 16 16 17 17 18 18 18 18 19 19 19 19 19 18 18 19 19 20 20 20 20 21 21 21 21 20 20 20 20 20 21 21 22 23 22 22 21 21 20 18 17 15 14 13 14 16 17 17 14 12 12 9 9 9 9 10 5 8 17 19 17 18 18 18 19 16 14 13 11 8 7 8 9 11 9 8 10 11 11 8 6 5
14 14 15 16 17 17 18 18 18 18 19 19 20 20 20 20 20 19 19 19 19 20 20 21 22 22 23 23 23 23 23 23 22 22 22 22 23 23 24 24 24 23 23 22 21 20 19 17 15 15 16 17 17 18 16 13 12 9 10 9 7 5 1 7 12 14 17 19 19 19 20 17 15 13 11 8 6 7 8 10 10 8 8 10 11 9 8 7
15 16 16 17 18 18 19 19 19 19 20 20 21 21 21 20 20 20 20 20 21 21 22 23 23 24 24 25 25 25 25 25 24 24 24 24 25 25 25 26 25 25 25 24 22 22 20 18 17 17 17 18 18 19 17 15 12 10 11 10 7 5 2 5 10 14 17 20 21 21 19 17 16 13 9 8 6 7 8 9 9 9 9 10 11 10 8 7
16 16 17 18 19 19 19 20 20 21 21 22 22 22 21 21 21 21 21 21 22 23 23 24 25 25 25 25 26 26 27 27 27 26 26 26 27 27 27 27 27 27 27 26 24 23 21 20 19 18 20 20 19 20 18 16 14 12 13 12 9 6 3 5 11 16 18 20 21 20 18 15 16 13 8 9 8 7 9 9 8 8 9 10 11 10 9 7
16 17 17 18 19 20 20 21 21 22 22 23 22 22 21 21 21 22 22 23 23 24 24 24 25 25 25 25 25 26 27 27 28 28 28 28 29 29 29 29 29 29 29 27 25 22 21 22 22 21 21 20 19 20 19 18 16 14 14 13 10 8 5 5 11 18 19 20 20 19 19 17 17 14 10 10 10 9 9 9 8 9 10 11 10 9 8 7
17 17 17 18 20 20 21 22 23 23 24 23 23 22 22 22 22 23 23 23 24 24 24 24 25 25 25 25 24 25 25 26 28 29 29 30 30 31 31 31 31 31 30 28 25 24 25 26 25 24 22 20 21 21 20 19 17 15 15 13 12 10 9 7 10 17 19 20 19 19 19 18 16 14 11 11 10 10 9 9 9 10 12 12 11 9 7 6
17 17 17 19 20 21 22 23 24 24 24 24 23 23 23 23 23 23 23 24 24 24 24 24 24 24 24 24 24 23 24 26 28 29 30 31 31 32 32 32 32 32 30 29 28 28 29 28 27 25 23 22 22 21 20 20 18 17 15 13 13 11 9 9 9 17 20 20 19 19 19 18 17 14 12 13 11 10 9 10 10 11 13 12 12 11 7 5
18 17 18 19 20 21 23 24 25 25 25 24 23 23 23 23 23 24 24 24 24 24 24 24 24 24 24 23 22 22 22 24 26 28 29 30 32 32 33 33 33 32 31 31 31 31 30 29 29 27 25 23 21 20 21 21 18 17 16 14 14 11 9 9 10 17 22 22 21 21 20 20 19 14 13 13 12 11 9 10 11 11 12 13 13 12 8 6
18 18 18 19 21 22 23 25 25 25 25 24 24 24 24 24 24 24 24 25 25 25 24 24 24 24 24 23 22 20 21 23 25 28 29 29 31 32 33 34 33 32 32 33 34 34 32 31 30 28 25 23 22 21 20 20 18 17 16 16 15 11 8 9 10 17 23 22 23 23 21 20 18 15 13 12 12 12 10 11 11 11 12 13 13 12 10 7
18 18 19 20 21 23 24 25 25 25 25 24 24 24 24 24 24 25 25 25 25 25 24 24 24 24 24 23 22 21 20 21 23 27 28 28 29 31 32 33 33 32 33 35 35 34 33 32 32 29 26 24 23 21 20 19 17 17 16 16 16 12 9 7 9 17 21 20 24 24 20 17 16 16 14 13 13 13 13 13 12 12 13 13 12 12 10 8
18 19 19 21 22 24 25 26 26 25 25 24 24 24 24 24 24 25 25 25 25 25 24 24 24 24 23 23 23 23 22 21 21 25 27 26 27 30 31 32 32 32 34 35 35 35 34 34 33 30 27 26 24 22 21 19 17 17 17 16 15 12 11 8 8 15 16 18 24 22 17 16 17 17 15 14 14 14 15 15 14 12 13 13 12 12 10 8
19 19 20 21 23 25 26 26 25 25 24 24 24 24 24 25 25 25 25 25 25 25 25 24 24 24 23 23 24 24 24 22 20 22 26 26 26 28 29 29 30 31 33 35 36 37 35 34 33 32 30 27 25 23 22 20 18 18 17 16 15 12 10 8 8 11 12 15 22 20 15 16 18 18 17 17 16 14 15 15 15 14 13 14 13 12 11 9
19 20 20 22 24 25 26 26 25 25 24 24 24 24 25 25 25 25 26 25 25 25 25 24 25 24 24 24 24 24 23 22 21 21 23 25 24 26 28 28 28 30 32 35 37 38 35 33 34 33 30 27 26 25 22 20 19 19 17 17 15 12 11 9 9 10 10 13 18 21 18 16 19 19 19 19 18 15 14 15 16 15 14 14 13 13 12 10
20 20 21 23 25 26 26 25 25 24 24 24 24 25 25 25 26 26 26 25 25 25 25 25 24 24 24 24 24 24 22 21 21 20 21 22 22 24 27 27 27 29 31 33 35 35 33 33 34 33 31 30 27 24 22 21 20 20 18 17 15 14 13 11 10 10 10 11 13 20 21 19 19 20 22 22 18 16 15 15 16 17 16 15 14 14 13 11
20 21 22 24 26 26 25 25 24 24 24 24 24 25 25 25 26 26 25 25 25 25 24 24 23 23 23 24 24 23 21 20 20 20 20 21 22 22 24 26 26 27 29 31 31 33 33 33 34 33 31 28 25 23 23 22 21 21 20 18 15 14 14 14 12 11 12 11 11 16 21 21 19 19 22 22 19 17 16 16 16 17 17 16 16 16 14 13
20 21 23 25 26 26 25 24 24 24 23 24 25 25 25 24 25 25 25 25 25 24 23 23 22 22 22 23 23 22 21 20 20 20 20 20 20 21 23 25 24 24 26 28 30 32 33 34 33 30 27 26 24 25 26 24 22 22 21 20 16 14 15 15 14 13 13 12 12 15 18 21 21 19 21 23 21 17 15 16 16 16 16 16 17 18 16 15
21 22 24 25 25 25 24 24 23 23 23 24 25 24 24 24 25 25 24 24 24 23 21 20 19 19 19 19 19 19 19 19 19 20 21 20 19 20 21 23 22 22 23 27 30 32 33 33 29 26 27 27 28 29 29 27 24 23 24 22 19 16 16 16 15 13 13 13 13 16 18 20 22 21 22 23 21 17 16 16 16 16 16 17 18 19 18 16
22 23 24 25 25 24 24 23 23 23 23 24 24 23 23 23 23 23 23 23 23 22 20 18 16 16 15 14 14 15 15 16 17 19 20 20 19 19 21 21 20 20 23 27 29 30 30 28 25 26 28 30 32 33 32 30 28 26 25 25 22 20 18 18 16 12 12 13 13 16 20 22 23 22 22 23 21 19 18 18 18 17 17 17 18 18 19 17
22 23 24 24 24 24 23 22 22 23 23 23 23 22 21 21 21 21 21 21 21 20 18 16 16 15 13 12 11 11 11 12 14 16 18 18 18 19 19 19 19 20 23 24 26 26 24 23 24 28 31 33 34 35 34 32 30 26 26 26 24 22 20 19 17 13 12 12 13 16 21 24 25 25 23 24 22 20 20 21 20 19 19 19 19 19 20 19
23 23 23 23 23 23 22 22 22 23 23 23 22 21 20 19 18 17 17 17 17 16 15 15 15 14 12 11 10 8 7 9 11 13 15 15 16 18 18 18 18 20 21 21 22 22 21 24 29 32 34 35 35 36 36 34 30 26 26 26 25 24 22 19 18 16 13 11 11 16 22 26 27 27 25 25 23 21 20 22 21 20 20 21 20 20 20 20
23 23 23 23 22 22 22 22 22 23 23 22 21 21 20 18 16 14 13 13 13 12 13 12 12 12 10 9 8 7 7 9 9 10 12 13 15 17 18 17 16 17 19 20 21 23 25 28 31 32 34 35 35 37 37 33 29 25 25 26 25 24 22 20 18 18 16 13 10 13 21 27 27 27 28 27 25 22 22 22 22 21 20 19 19 20 21 19
22 22 22 22 22 21 21 21 22 22 22 21 20 20 18 16 15 13 11 11 10 10 10 10 9 9 8 8 6 6 8 8 8 9 11 12 15 16 16 15 15 16 18 21 22 26 28 29 29 30 33 34 36 37 35 32 29 26 25 26 26 23 22 21 19 18 18 16 13 11 15 25 28 27 29 30 27 24 24 23 23 22 20 19 19 19 19 19
21 21 21 21 21 21 21 21 22 22 21 20 20 20 17 15 14 12 10 10 9 9 10 10 9 8 6 4 4 6 7 7 8 10 11 12 13 15 15 14 14 15 18 21 23 27 28 27 28 29 31 34 36 35 32 31 29 27 27 26 26 24 23 21 19 18 18 18 18 13 11 18 26 28 29 32 30 27 26 25 24 23 21 20 20 19 19 19
20 20 20 21 21 20 20 21 21 21 20 19 19 18 17 15 13 11 10 10 9 10 12 11 9 8 5 1 1 4 6 6 7 10 12 13 13 15 16 15 14 14 16 19 23 27 28 28 28 29 31 33 33 30 27 28 29 29 29 28 27 25 23 22 19 17 18 18 19 18 14 12 19 28 32 33 34 31 27 26 25 22 21 21 21 20 19 19
19 20 20 20 20 20 20 20 20 20 19 18 17 17 16 14 13 11 10 9 9 10 11 9 8 6 4 4 3 3 5 7 7 9 12 13 14 15 16 15 15 13 13 17 23 26 27 28 29 30 32 31 29 26 26 27 28 28 29 29 28 26 24 22 19 18 19 18 17 19 18 13 12 23 34 36 36 33 28 27 26 23 21 21 22 21 20 19
19 19 20 20 20 19 20 20 19 18 17 16 16 16 15 14 12 11 11 10 10 12 10 6 5 1 4 7 7 4 3 6 9 11 11 13 15 16 15 14 14 12 13 19 23 24 25 26 28 29 29 30 29 27 28 29 28 27 28 29 28 26 23 19 16 16 17 17 17 16 17 16 12 16 29 37 34 31 29 28 26 25 24 23 23 23 21 20
19 19 19 19 19 19 19 19 18 16 15 15 15 14 12 11 10 10 10 11 12 13 10 4 1 1 4 6 4 3 2 4 9 11 11 12 15 16 14 13 12 12 14 20 23 25 26 26 27 28 29 31 32 30 30 31 30 29 29 28 27 25 22 17 14 13 13 14 15 15 15 17 14 12 21 34 36 32 32 31 27 25 25 24 24 23 22 21
19 19 19 19 19 19 19 18 16 15 14 14 13 11 10 9 8 8 10 11 11 12 11 6 2 0 3 5 2 2 2 4 8 9 8 10 14 15 14 13 13 14 17 23 26 27 29 27 27 29 32 34 32 30 32 33 32 30 30 28 25 23 20 18 16 13 11 11 13 14 15 15 13 11 14 26 36 37 34 32 30 27 25 25 24 23 23 23
19 19 19 19 18 18 18 17 15 14 13 13 11 9 8 8 8 8 10 11 10 9 10 10 5 2 2 4 4 5 4 5 8 8 7 10 13 15 16 16 16 18 22 26 28 29 29 27 28 31 34 34 33 31 32 31 30 30 28 27 24 21 20 19 18 14 11 11 12 14 15 13 13 13 11 16 27 35 36 33 31 29 28 28 26 25 24 24
19 19 19 19 18 18 17 16 14 13 13 12 9 8 8 8 8 8 9 8 9 8 8 9 8 4 3 4 5 7 4 5 7 7 9 14 17 17 19 19 18 21 25 29 29 28 28 25 26 30 31 31 31 29 28 26 26 28 28 26 23 21 22 20 19 15 11 12 12 13 14 14 14 13 11 11 16 26 34 37 35 32 30 30 29 27 26 25
20 19 19 18 18 17 16 15 14 12 12 11 9 8 8 8 8 8 7 7 8 9 7 8 8 5 5 6 5 6 3 5 6 8 11 16 20 21 21 21 23 25 27 28 28 29 30 24 21 27 28 28 29 28 26 25 25 27 30 28 24 21 21 20 19 15 12 11 11 11 12 13 14 13 11 12 12 15 24 34 39 36 31 29 29 27 25 25
21 20 19 18 17 16 16 15 13 12 11 10 10 9 8 8 7 7 8 8 8 7 4 6 9 7 8 8 7 6 3 2 5 9 14 17 21 23 24 24 26 26 25 26 28 32 33 23 19 25 27 26 27 26 27 27 25 26 28 28 25 23 22 22 20 16 13 10 9 10 11 12 14 14 12 12 12 12 15 23 34 38 33 29 28 27 25 24
21 21 20 18 18 16 15 15 13 11 10 11 11 10 8 8 8 9 9 9 10 7 4 6 8 7 8 8 8 8 2 2 5 11 16 19 23 25 27 28 28 27 26 28 30 33 33 24 21 25 25 25 27 27 28 27 26 24 25 26 26 25 24 23 21 17 13 10 8 8 9 10 11 13 12 11 10 11 12 16 28 38 37 32 29 27 25 24
21 21 20 19 18 16 15 14 13 11 10 11 12 11 10 9 9 10 10 10 11 7 4 8 8 6 9 9 10 10 5 2 3 11 18 22 25 27 29 30 29 29 31 30 29 32 31 24 24 27 26 25 28 29 29 29 27 25 23 24 25 22 21 21 19 16 13 11 9 7 6 7 8 10 11 10 9 10 10 12 21 35 39 34 31 30 26 25
21 21 20 19 17 16 14 14 13 11 10 10 11 12 12 11 10 11 11 10 8 6 4 7 8 6 8 10 11 10 7 6 6 7 17 23 25 27 30 31 30 32 34 31 29 33 33 24 23 27 27 25 26 28 28 28 29 28 24 23 23 20 19 20 19 18 16 13 12 9 5 3 4 6 8 8 9 10 10 9 14 29 38 35 32 32 29 25
21 21 20 18 16 15 14 13 12 10 8 9 11 12 12 11 11 13 13 8 5 5 5 7 8 7 7 10 10 9 8 7 7 5 14 25 25 26 29 30 31 33 34 34 32 34 34 26 21 23 23 22 22 24 24 23 26 28 25 21 20 18 17 18 19 19 18 15 14 12 7 4 3 4 5 7 8 9 10 10 11 23 35 37 34 34 31 25
21 21 19 18 16 14 13 12 11 9 8 9 10 10 11 12 11 14 13 6 3 3 5 7 9 8 8 10 9 8 9 8 7 5 11 25 25 25 28 28 29 33 36 35 33 33 33 27 22 23 22 19 17 17 19 19 21 25 24 20 18 17 15 15 16 16 17 15 12 11 9 8 5 4 5 7 8 8 10 13 15 21 31 36 36 34 32 28
21 20 20 19 18 16 14 13 11 9 9 9 9 10 11 12 12 13 12 5 1 2 3 5 7 9 11 11 9 9 10 9 8 5 8 22 26 26 26 26 25 29 37 38 33 33 32 25 21 24 23 20 17 16 19 23 24 25 25 21 17 17 15 14 14 14 13 13 11 10 10 10 9 6 6 7 9 9 10 14 19 24 32 37 37 35 33 30
21 20 19 19 19 18 15 13 11 11 12 11 10 11 11 12 12 11 11 7 5 6 5 4 5 8 12 12 10 9 9 9 7 4 4 15 26 28 25 26 24 22 31 39 36 33 30 23 20 23 22 20 18 15 16 24 30 29 28 25 20 18 16 14 15 14 11 10 11 12 11 10 10 8 7 7 8 8 9 12 16 25 35 39 39 37 34 32
20 19 19 18 19 18 15 12 11 13 15 15 13 12 12 12 12 11 12 11 10 9 9 8 7 8 10 11 11 10 8 6 5 6 6 6 21 30 26 24 24 21 23 33 38 34 30 27 24 25 25 24 22 17 14 24 33 34 30 27 22 19 17 16 16 15 12 10 10 12 12 11 10 8 7 7 7 6 5 5 10 24 35 40 40 37 34 32
20 18 18 18 18 17 15 13 12 12 15 15 14 13 13 14 14 11 11 12 11 9 8 9 9 8 8 11 12 11 9 7 4 5 6 6 9 23 27 24 24 21 19 28 39 36 33 34 32 31 32 30 27 24 19 23 30 35 33 27 23 20 17 16 16 15 13 10 9 11 13 13 11 9 8 7 8 7 4 5 13 26 34 37 37 35 33 33
20 17 18 18 17 16 15 14 12 12 13 12 12 13 14 15 14 11 10 11 10 8 8 8 7 6 8 12 13 12 11 10 6 5 6 6 8 9 16 21 24 23 18 24 38 38 34 35 34 34 32 29 27 26 23 22 25 32 34 29 25 23 21 19 18 17 15 14 12 12 14 14 13 11 8 7 7 6 7 9 16 25 30 31 30 30 31 34
20 18 17 17 16 16 15 14 11 12 12 10 11 13 14 15 12 10 11 12 10 7 7 7 6 5 7 9 11 11 10 11 10 8 7 8 10 8 6 10 19 24 21 23 34 38 35 33 31 30 29 27 26 26 24 23 22 26 30 29 27 25 24 23 21 18 17 16 15 13 14 14 14 12 9 7 6 4 5 8 12 18 22 24 25 27 29 32
20 19 18 17 16 16 16 14 12 11 11 11 11 12 14 15 12 11 11 10 8 7 8 5 3 4 5 6 7 9 9 11 12 10 8 8 8 8 8 10 12 19 22 23 27 32 33 31 31 30 29 29 29 27 26 25 24 25 28 28 27 26 26 24 22 20 19 18 16 14 14 15 15 12 9 8 7 5 4 5 8 12 15 18 20 21 23 27
19 18 18 17 16 16 16 15 13 11 10 11 12 13 15 15 13 12 10 8 6 8 9 6 1 2 5 5 5 7 10 12 12 10 9 9 7 7 9 12 13 13 18 22 25 27 28 30 33 32 30 31 31 30 29 28 28 28 29 29 29 29 28 26 24 23 22 21 19 17 16 17 15 13 11 11 10 7 5 5 7 9 11 14 16 18 20 23
19 18 17 16 16 16 16 14 13 13 11 12 15 16 15 14 14 13 11 9 8 8 10 9 6 5 5 4 4 6 10 13 12 9 9 10 9 8 9 11 13 12 13 18 24 26 26 28 35 34 30 32 33 32 30 28 28 30 32 32 32 31 31 29 26 26 25 24 22 19 18 18 16 14 13 13 12 11 8 8 9 10 11 12 13 17 20 21
19 18 17 16 16 17 16 14 13 15 14 15 17 16 15 14 14 13 12 11 10 9 9 9 8 7 6 6 5 6 9 11 10 9 10 11 10 10 9 10 11 12 12 14 19 24 25 27 35 37 32 33 34 33 30 28 27 30 33 34 34 33 32 30 29 28 26 24 22 20 19 17 16 15 14 13 13 13 12 11 12 11 11 11 12 16 19 15
19 18 17 17 17 17 17 15 14 16 17 16 16 14 13 16 16 14 14 13 11 10 10 9 9 7 7 7 6 4 7 10 10 10 11 11 11 11 12 13 12 12 13 14 16 19 23 26 34 37 33 34 35 33 31 30 29 31 33 32 33 33 32 31 31 29 26 24 23 21 19 18 18 18 16 13 13 14 15 15 14 12 11 11 12 14 16 13
Wind_Direction
325 320 317 314 312 309 307 304 302 300 298 295 294 292 289 287 284 282 279 277 276 274 273 272 271 269 268 267 265 263 262 259 255 249 246 248 252 255 259 260 262 262 263 262 257 254 253 251 238 226 228 241 254 262 269 274 277 280 286 299 300 308 301 285 262 206 189 187 176 172 172 167 160 143 112 114 124 147 124 115 124 125 121 110 114 133 129 133
319 316 313 312 309 307 305 302 301 299 297 295 292 289 286 284 281 280 277 275 273 271 269 268 267 266 266 266 265 264 263 261 259 253 246 245 248 249 253 255 257 258 259 259 257 255 254 253 243 231 229 239 248 253 261 267 269 271 283 299 304 317 308 281 238 197 183 180 173 169 173 167 160 150 140 139 141 157 128 122 132 127 124 116 118 132 125 127
316 313 310 309 307 305 303 301 299 297 295 293 291 288 284 281 279 278 276 275 272 270 268 266 265 264 264 264 263 263 262 262 260 258 252 247 246 247 249 251 253 255 256 256 256 255 255 251 240 231 229 237 243 246 254 264 265 267 278 295 303 318 314 272 209 185 175 172 171 167 169 168 167 159 151 152 142 147 131 125 134 134 131 125 129 136 129 125
314 310 307 304 303 302 301 300 298 296 294 291 288 286 284 282 279 276 274 272 270 269 267 265 264 262 262 262 262 262 262 261 260 260 257 252 248 246 246 247 249 250 253 253 253 253 251 245 237 230 229 236 241 244 251 259 260 263 271 284 301 322 321 241 182 173 172 170 174 173 170 168 167 165 158 153 146 152 140 123 132 146 140 134 137 138 135 122
318 313 309 306 304 302 300 299 298 296 294 291 288 285 283 281 278 276 273 270 268 266 266 265 264 263 262 261 261 260 260 260 259 258 256 254 250 246 243 244 245 246 249 250 250 250 248 243 236 231 231 235 240 244 249 252 255 256 263 273 293 325 354 162 167 171 175 171 177 178 173 171 166 170 169 151 148 163 146 128 135 154 147 140 142 141 137 120
322 318 315 311 308 306 303 301 299 297 294 292 289 287 284 281 278 275 273 270 268 266 266 265 264 264 263 262 261 260 260 259 258 255 253 252 250 247 243 240 241 242 244 246 247 246 245 242 235 231 232 235 239 244 245 245 250 248 253 265 276 308 23 166 180 183 182 175 177 177 173 174 167 169 172 145 144 171 149 134 140 154 151 140 140 138 132 118
322 320 317 314 311 308 306 304 302 299 296 294 291 289 286 283 279 276 273 271 270 269 268 267 266 265 264 263 263 262 261 259 257 254 252 250 249 248 244 240 238 238 241 242 243 243 242 239 234 232 232 234 236 240 243 244 246 243 247 256 260 271 271 230 214 200 194 184 179 178 175 174 167 166 167 144 148 173 151 138 144 155 152 139 137 132 126 116
320 319 318 315 312 309 307 306 304 302 299 296 294 291 287 284 281 278 276 274 273 272 271 270 269 267 266 264 264 263 261 260 258 255 252 249 248 246 244 241 237 236 238 239 240 241 241 239 235 232 232 232 235 237 240 243 242 240 245 251 256 257 258 260 232 212 201 192 187 184 178 172 171 176 174 154 157 172 156 144 147 156 151 138 134 131 129 122
319 318 317 314 312 309 307 306 305 304 301 299 296 292 289 285 282 280 279 278 277 276 274 273 271 269 268 266 265 263 262 261 259 255 251 248 246 245 243 240 237 235 236 237 237 238 237 238 235 232 232 232 234 237 237 239 239 237 242 245 251 251 246 275 243 215 198 192 191 184 182 179 177 183 177 162 166 172 161 150 150 156 152 140 133 130 132 126
318 317 316 313 310 309 307 307 306 305 303 301 298 294 290 287 285 284 283 282 281 279 278 276 274 272 271 270 268 265 263 262 259 256 252 248 245 244 242 240 237 234 233 234 233 232 230 231 232 230 230 230 231 234 234 237 238 236 241 244 250 251 246 262 240 213 197 192 189 182 188 189 182 182 175 166 171 173 164 155 152 155 153 143 137 132 133 130
317 316 314 311 309 308 307 307 307 306 305 303 299 295 291 290 289 288 286 285 284 282 281 279 277 276 275 274 272 268 265 263 261 258 255 251 247 243 242 240 237 234 231 231 230 230 230 230 232 230 227 227 228 230 233 236 236 235 239 243 248 252 255 259 233 211 200 195 190 186 192 190 185 186 182 175 171 173 172 162 155 155 155 148 143 140 140 138
317 316 313 310 309 308 307 307 308 307 306 303 299 296 294 293 292 291 290 289 287 285 284 283 282 282 280 279 276 272 268 264 262 259 255 252 248 244 241 239 237 234 230 228 228 228 229 230 231 230 226 226 226 226 231 235 235 236 237 240 244 249 259 262 239 216 205 196 189 184 185 183 185 192 194 187 173 169 180 174 161 156 155 153 150 145 147 146
316 315 312 310 309 308 308 308 309 308 306 303 300 299 297 296 295 294 293 292 290 289 289 289 290 289 287 284 281 276 271 267 264 261 257 252 249 245 241 239 236 233 230 228 228 228 227 227 229 229 226 226 226 225 228 233 235 237 238 240 243 245 252 257 241 218 204 195 188 181 180 181 187 198 199 192 174 169 184 183 169 161 154 156 157 148 151 152
315 313 311 310 310 309 309 310 310 308 306 303 302 301 300 299 297 296 296 295 293 294 295 295 294 292 290 288 285 281 276 270 265 262 258 252 248 245 241 239 236 232 229 228 228 229 227 226 227 227 224 224 223 223 227 229 232 236 234 237 244 242 239 248 231 211 201 193 187 180 180 185 192 203 199 189 178 175 185 186 174 166 156 158 160 150 152 153
314 312 310 311 310 310 311 311 311 308 306 304 304 303 301 299 299 299 298 297 297 298 298 296 294 293 291 290 287 283 277 268 261 259 258 251 246 245 242 238 236 233 229 227 226 227 226 226 226 224 221 221 220 220 223 225 227 233 232 232 239 237 232 243 230 209 202 197 191 184 186 188 192 201 197 188 187 184 186 184 177 169 160 160 161 152 154 155
312 311 311 311 311 311 312 312 311 309 307 306 305 303 302 301 301 301 301 300 300 299 299 297 296 295 293 290 286 281 276 269 259 254 255 251 244 243 242 239 235 233 230 227 225 225 223 224 224 222 219 218 217 216 219 221 222 228 230 227 230 231 226 230 227 209 201 201 197 196 196 188 190 197 194 189 189 189 187 184 178 171 164 163 162 156 158 162
311 311 311 311 311 312 313 313 311 309 308 308 307 305 304 304 304 303 303 303 302 302 301 300 298 296 292 288 284 279 275 269 259 250 250 250 244 239 240 239 234 231 230 227 225 224 222 222 223 222 218 216 214 212 215 218 219 221 225 225 225 226 221 215 215 210 207 209 206 207 207 195 192 194 193 190 187 185 188 187 180 173 169 165 164 162 163 171
310 311 311 311 312 313 314 313 312 310 310 309 309 308 307 307 306 306 306 306 305 305 303 300 298 295 291 287 283 277 272 265 258 251 247 248 245 239 238 238 235 230 229 228 226 224 221 221 222 220 216 214 210 208 212 216 217 217 219 222 223 221 219 217 215 213 213 218 218 215 212 205 199 194 192 191 189 185 185 190 185 176 171 166 167 166 169 178
309 310 310 311 313 314 314 313 312 312 311 312 312 311 310 309 308 308 309 310 308 306 303 300 297 293 290 286 280 275 269 263 258 254 248 245 245 240 237 237 236 231 228 227 224 222 220 220 221 218 215 213 207 205 212 215 215 214 214 218 222 219 216 213 212 214 216 218 220 217 214 211 204 195 192 193 198 195 186 189 190 181 172 168 170 168 172 184
308 309 310 312 313 314 314 314 313 313 314 315 314 313 312 311 311 312 313 311 310 308 305 302 300 296 290 284 279 273 268 263 257 251 246 242 241 239 236 235 234 231 227 224 221 219 217 218 219 216 214 211 204 205 211 212 213 213 211 213 213 212 212 209 208 212 217 219 215 216 220 216 205 195 192 195 203 203 191 191 192 185 175 172 175 170 174 187
308 310 311 313 314 314 315 315 315 316 317 317 317 316 316 316 317 316 315 313 312 311 310 309 305 298 290 285 280 275 268 260 253 245 240 237 235 234 233 232 231 228 224 221 218 216 214 215 215 211 210 207 201 204 210 209 211 211 210 210 207 208 214 214 215 216 221 227 222 217 221 220 210 202 197 197 204 205 194 192 191 186 178 177 179 174 176 186
309 311 313 315 315 315 316 316 317 319 319 319 320 319 319 319 317 316 317 317 318 319 319 317 312 304 298 294 287 278 267 255 246 240 236 233 230 228 228 228 226 222 220 220 218 215 213 211 208 207 208 206 201 203 208 208 210 210 210 211 209 210 218 219 221 225 227 232 234 221 215 218 214 205 199 197 203 206 196 191 191 185 178 181 183 176 176 182
311 314 316 316 316 316 317 318 320 321 321 321 321 320 320 319 317 318 321 322 323 323 324 323 317 312 312 310 300 284 265 252 242 234 231 229 227 224 223 223 219 217 219 219 217 214 209 203 203 205 206 206 203 202 205 207 208 210 212 214 213 214 219 221 220 223 225 229 236 222 208 211 212 205 200 197 201 208 200 192 192 186 179 181 183 177 176 180
315 317 318 318 318 318 320 321 322 323 323 322 321 320 320 319 321 324 324 323 324 321 322 322 316 312 314 312 303 289 261 248 242 231 224 224 222 217 216 217 216 217 216 214 212 204 194 195 200 203 205 206 205 203 205 206 206 208 212 215 215 215 218 221 219 219 221 225 233 224 210 211 213 209 205 201 201 208 204 196 195 191 183 181 181 178 177 179
318 320 321 321 321 321 322 323 324 325 324 322 321 320 320 322 326 327 323 321 320 316 315 315 312 313 312 306 300 282 253 239 233 227 218 215 214 210 209 212 215 216 212 207 202 191 187 195 200 201 204 206 206 205 206 205 203 206 211 214 216 216 218 222 220 217 219 220 226 229 219 215 215 213 209 205 203 208 208 199 197 196 188 183 180 178 180 180
322 323 325 325 324 324 324 326 328 327 324 322 321 321 325 329 330 329 321 314 313 314 313 313 317 317 307 299 292 265 248 235 222 215 211 210 209 205 200 202 211 213 208 203 194 188 190 195 198 201 204 206 206 206 205 203 203 206 209 213 215 214 216 221 222 220 221 221 221 232 227 217 215 214 210 208 207 208 210 202 198 200 191 183 182 180 181 180
326 328 330 329 328 327 327 330 331 327 324 324 324 326 329 330 329 327 312 304 313 318 314 317 325 322 304 289 281 261 241 227 221 210 204 206 207 204 196 193 203 208 209 205 194 190 193 192 194 200 204 207 207 205 203 202 203 206 209 212 215 215 216 220 223 223 225 225 224 232 238 222 217 215 213 212 210 209 211 206 200 200 191 185 185 182 182 180
331 333 333 332 331 329 330 334 331 328 327 326 326 325 325 328 329 322 306 305 316 316 313 315 315 314 310 295 298 270 235 211 221 216 205 200 199 203 198 190 192 202 211 206 193 191 193 192 193 198 202 206 206 203 200 201 203 208 212 212 214 215 216 220 224 225 228 228 229 233 241 241 227 218 214 215 214 210 209 207 204 201 193 188 187 184 185 183
335 337 336 335 333 331 334 335 332 329 328 326 325 322 322 329 329 320 316 317 318 317 317 311 301 315 347 354 347 292 237 213 214 216 211 202 196 200 199 190 187 193 203 199 192 193 194 193 193 197 200 200 199 197 196 198 201 208 215 215 216 217 217 221 226 229 231 231 231 232 237 250 247 225 217 215 215 212 209 206 204 202 196 191 190 187 187 189
339 339 338 336 334 335 337 336 333 330 328 325 323 321 325 332 330 328 332 329 319 317 315 303 292 338 36 360 339 323 268 233 220 212 208 205 202 201 201 198 191 187 190 192 191 191 191 193 195 197 197 193 189 188 190 193 196 203 213 217 217 217 216 221 227 229 231 230 230 232 235 242 252 238 223 217 215 214 212 208 204 204 199 192 192 190 187 191
340 340 339 337 337 338 339 336 334 331 328 325 322 322 328 332 331 332 333 324 317 318 316 311 296 111 56 21 333 306 308 264 241 220 202 202 205 203 201 198 189 184 186 185 184 184 188 192 194 193 192 190 188 187 186 189 192 198 207 212 214 216 216 221 225 228 230 227 224 225 231 236 246 253 229 217 214 213 213 210 206 206 203 196 193 191 188 191
340 340 339 338 338 339 339 336 335 333 328 323 320 321 323 325 326 324 325 321 317 322 321 321 327 186 37 39 30 324 327 289 262 231 198 196 202 196 191 185 180 182 181 176 177 182 187 189 188 186 187 189 189 190 190 189 191 198 204 207 210 214 217 220 225 229 228 222 217 220 227 231 239 253 235 217 214 215 214 211 208 206 202 199 196 192 190 192
339 339 339 338 339 340 339 336 336 333 326 319 315 313 309 310 314 315 319 317 308 310 315 320 321 271 345 20 32 14 345 291 266 236 195 185 187 179 175 176 176 177 174 173 178 183 183 181 180 181 185 188 190 195 196 192 194 201 206 207 208 215 221 221 224 225 220 218 218 223 228 228 232 238 228 217 217 219 218 215 211 206 200 199 197 195 194 193
338 338 338 338 338 339 338 335 335 331 323 316 308 303 300 299 305 311 314 302 290 294 306 317 309 278 310 343 2 7 334 270 261 242 200 176 170 167 169 173 176 176 175 177 179 178 174 174 180 182 185 190 193 196 196 192 197 204 208 207 204 212 222 220 220 220 214 215 219 224 227 227 233 233 221 219 221 220 219 218 216 211 202 198 196 196 196 195
336 337 338 337 337 339 336 333 332 328 322 312 300 293 292 295 302 310 307 282 278 293 305 315 310 299 317 315 325 357 332 251 245 232 206 181 167 164 168 175 179 178 178 178 176 173 170 172 187 189 186 190 192 192 191 190 197 202 205 205 199 204 218 219 218 214 208 213 218 222 225 226 234 237 229 227 226 221 219 220 219 215 207 201 197 195 196 198
335 336 337 336 336 338 334 330 329 326 319 302 289 284 281 285 288 292 287 264 263 280 288 307 313 310 312 304 305 340 12 179 208 212 204 188 171 165 170 181 184 180 178 177 175 176 174 174 193 194 186 185 188 190 193 193 197 201 204 205 200 202 215 221 218 210 204 212 221 223 224 227 233 236 234 229 225 225 224 222 220 216 211 207 200 195 195 198
331 335 335 334 336 336 332 328 325 322 311 293 287 283 274 276 275 276 280 274 274 274 250 270 286 285 288 288 289 305 343 128 198 207 201 189 175 171 177 186 186 181 180 179 176 177 176 178 191 191 184 183 187 192 196 197 199 198 199 203 203 204 213 222 221 212 204 207 216 219 221 227 233 234 236 232 224 227 230 226 220 216 213 209 200 196 196 197
327 332 334 334 336 335 331 327 323 316 303 292 292 287 276 277 279 279 284 286 285 284 256 253 256 261 269 271 280 287 291 312 246 211 203 193 181 179 184 187 185 182 181 177 176 178 178 181 189 188 184 187 192 195 195 197 199 196 194 199 202 202 210 221 222 214 209 209 209 206 207 221 232 234 237 237 230 228 234 232 218 212 210 208 201 196 197 198
323 327 332 335 335 332 329 325 320 312 300 295 293 285 278 282 291 292 291 293 293 297 280 251 245 254 261 264 278 289 296 314 310 232 207 198 189 186 189 189 186 183 180 177 179 180 179 182 188 187 185 189 198 200 195 195 199 198 193 192 196 199 207 218 219 213 211 216 216 210 201 220 243 240 237 236 234 230 235 240 219 207 205 208 207 201 199 199
323 323 330 335 333 328 326 322 319 313 298 291 285 280 281 289 300 298 292 302 319 308 279 246 244 254 258 265 277 293 305 300 310 289 207 195 192 193 193 191 189 186 180 181 186 184 179 180 183 187 189 190 195 198 196 198 202 201 196 191 193 200 210 220 223 218 215 220 225 223 224 241 257 256 243 231 230 233 232 234 224 207 203 206 210 206 201 200
323 321 326 329 326 324 324 323 322 310 285 275 274 275 281 287 296 292 285 298 359 296 248 232 245 254 257 267 274 293 308 292 301 317 203 193 194 197 197 196 194 190 185 185 189 188 183 180 178 186 193 191 190 195 201 205 207 206 201 196 197 203 209 217 221 221 221 226 233 233 233 244 252 265 256 234 230 243 242 235 230 216 205 204 207 205 202 200
323 321 322 324 323 323 324 327 327 304 275 266 265 267 274 281 287 283 273 273 316 271 248 238 255 263 261 265 273 285 297 296 306 321 199 195 199 200 199 203 202 192 187 188 192 192 189 184 177 181 189 192 193 198 206 207 208 208 202 194 196 204 208 212 213 216 221 226 233 233 232 241 245 250 258 244 238 253 261 251 237 220 206 200 201 201 200 199
322 320 318 319 321 322 324 327 320 293 273 263 255 255 264 272 274 266 256 252 246 251 267 274 266 264 263 265 269 269 275 290 302 306 229 207 206 204 202 206 209 201 190 188 191 195 191 185 180 179 185 194 193 189 200 203 199 201 199 190 190 199 199 200 204 204 206 213 221 222 226 238 242 239 246 246 241 254 272 265 237 212 200 195 194 196 197 199
319 317 312 313 318 321 320 318 309 291 281 275 264 256 255 254 255 255 252 252 252 253 265 277 270 261 257 254 253 252 255 276 288 293 309 248 208 204 206 210 211 214 204 190 189 193 190 186 186 184 186 191 191 186 196 199 189 186 190 186 183 188 185 183 193 198 195 198 205 208 214 226 233 229 228 230 228 239 268 262 204 193 191 189 188 191 196 199
315 312 307 308 315 318 313 310 309 299 289 281 267 259 253 247 251 261 262 259 259 261 265 272 270 260 245 238 240 240 239 246 268 288 311 318 224 205 208 216 214 217 218 193 186 191 193 189 188 187 185 186 190 194 202 207 192 179 180 181 179 183 183 182 194 199 194 190 191 198 205 215 226 225 215 212 211 208 199 155 162 174 181 184 186 191 197 201
309 306 302 302 309 311 306 306 309 301 290 273 257 254 254 251 254 261 267 265 262 263 267 263 258 246 230 232 234 232 231 233 240 259 258 282 289 235 215 219 214 214 220 196 187 191 195 192 187 185 184 183 190 198 204 213 201 180 175 176 178 187 194 197 203 204 199 193 191 198 203 208 223 229 216 207 206 196 180 157 157 167 176 183 190 197 203 206
304 301 298 298 303 305 304 304 304 299 292 273 254 255 258 258 257 251 255 261 257 256 261 256 252 243 225 229 234 229 228 232 231 236 240 251 275 283 268 238 215 213 219 203 191 194 196 189 180 178 181 182 189 196 201 207 203 188 181 178 178 189 200 204 206 206 205 202 197 201 205 206 216 225 221 212 204 191 185 175 168 172 178 185 194 202 208 210
298 296 294 294 298 301 303 302 299 297 290 276 261 255 255 257 254 250 253 256 251 251 251 248 259 249 218 216 233 225 219 228 229 225 227 233 251 273 286 279 242 222 222 212 197 197 199 189 173 172 180 184 187 191 196 204 206 200 194 186 183 192 202 206 207 207 211 211 204 203 209 210 212 214 216 213 202 192 200 196 188 187 190 194 202 208 213 217
292 290 289 290 292 295 297 296 293 288 278 267 257 248 247 248 248 254 265 263 252 251 250 243 215 206 209 209 228 217 207 219 225 217 211 218 233 255 261 267 262 238 227 222 210 206 209 195 177 175 181 186 188 189 194 204 209 209 205 196 191 195 202 209 214 215 218 219 212 208 211 212 209 208 215 220 217 216 225 220 212 209 208 213 218 221 226 231
286 284 283 283 284 287 289 287 283 279 267 251 246 246 247 247 244 250 263 266 258 252 250 242 213 188 197 208 220 214 208 215 221 215 212 215 220 235 244 252 259 251 238 233 223 220 222 204 185 181 184 187 190 192 194 202 208 210 212 208 203 205 209 213 219 221 223 222 217 214 216 215 210 209 217 226 228 227 226 224 224 225 226 228 232 232 235 244
283 280 276 274 276 280 282 280 273 270 263 249 245 249 253 254 254 254 258 265 265 259 255 248 226 197 193 208 220 220 212 213 217 213 216 220 219 227 237 240 249 255 255 253 240 231 231 215 193 186 187 190 192 194 197 203 205 207 210 209 207 210 213 213 215 219 220 218 217 219 221 219 216 216 223 231 232 229 226 224 223 225 231 235 239 238 238 250
281 277 271 267 270 274 276 275 268 263 262 257 252 252 252 257 264 263 255 259 267 264 261 257 241 215 204 213 221 227 218 212 209 203 206 218 223 228 234 234 239 252 260 268 263 247 241 225 200 190 190 191 191 194 198 204 205 203 204 204 203 205 207 207 210 214 216 215 218 223 226 224 223 225 229 234 235 232 229 229 226 227 237 243 247 246 241 244